Date,TemperatureHighF,TemperatureAvgF,TemperatureLowF,DewpointHighF,DewpointAvgF,DewpointLowF,HumidityHigh,HumidityAvg,HumidityLow,PressureMaxIn,PressureMinIn,WindSpeedMaxMPH,WindSpeedAvgMPH,GustSpeedMaxMPH,PrecipitationSumIn
2013-1-1,29.8,26.8,24.9,28.3,23.7,20.9,94,88,81,30.18,30.06,7,1,7,0.00
2013-1-2,23.0,15.3,7.1,12.7,6.9,3.8,88,70,51,30.30,30.19,5,1,7,0.00
2013-1-3,30.0,23.2,15.5,25.1,16.4,5.0,84,75,61,30.32,30.22,12,2,12,0.00
2013-1-4,28.2,23.3,16.5,22.4,18.0,12.0,87,80,72,30.35,30.28,17,2,17,0.00
2013-1-5,36.8,27.2,21.1,31.0,23.4,18.6,91,86,72,30.35,30.11,8,2,16,0.02
2013-1-6,35.4,29.8,24.1,31.9,26.0,19.7,90,85,82,30.37,30.00,17,3,17,0.01
2013-1-7,36.6,27.2,18.0,28.0,22.9,16.6,95,84,70,30.45,30.21,16,2,16,0.00
2013-1-8,43.3,33.7,25.9,30.9,27.1,22.5,87,77,59,30.28,30.18,9,2,11,0.03
2013-1-9,47.6,41.2,32.2,37.5,34.2,24.0,87,76,58,30.51,30.14,13,3,13,0.00
2013-1-10,43.1,35.1,26.5,40.7,30.4,23.2,95,83,68,30.52,30.02,13,2,14,0.15
2013-1-11,57.2,51.9,43.2,53.5,48.6,40.5,97,89,74,30.02,29.76,20,4,20,0.56
2013-1-12,61.7,55.2,51.0,53.8,51.1,46.9,98,86,74,29.95,29.69,13,2,15,0.76
2013-1-13,53.0,34.3,20.4,52.5,33.0,17.5,98,95,87,30.22,29.69,16,3,17,1.12
2013-1-14,21.7,18.2,14.9,17.7,14.6,11.4,94,86,79,30.50,30.21,16,2,16,0.00
2013-1-15,29.2,22.9,14.9,22.1,18.3,13.2,94,83,67,30.46,30.14,10,1,10,0.00
2013-1-16,35.7,27.8,20.7,26.4,22.3,19.0,95,81,58,30.14,29.96,13,2,13,0.00
2013-1-17,36.7,29.7,20.0,30.0,23.6,15.0,96,78,58,30.43,30.08,15,2,15,0.00
2013-1-18,38.8,29.8,17.8,27.4,20.4,14.8,89,69,49,30.49,30.11,21,4,22,0.00
2013-1-19,50.4,41.6,36.9,37.1,30.9,26.9,76,66,56,30.12,29.83,22,5,25,0.00
2013-1-20,43.0,23.4,18.9,35.0,12.9,8.9,77,64,53,30.28,29.87,20,4,27,0.00
2013-1-21,20.1,13.9,7.2,12.1,4.8,-4.0,86,67,53,30.31,30.16,23,5,23,0.00
2013-1-22,14.3,8.3,3.1,0.8,-1.1,-2.4,79,65,51,30.45,30.30,14,3,15,0.00
2013-1-23,21.9,15.9,10.4,14.2,6.4,0.0,79,66,53,30.40,30.15,20,1,20,0.00
2013-1-24,22.5,17.3,10.4,14.1,9.1,4.0,89,71,47,30.65,30.21,13,2,13,0.00
2013-1-25,26.1,22.2,18.1,21.4,16.2,9.7,89,78,63,30.45,30.05,9,2,12,0.00
2013-1-26,29.4,22.6,17.1,19.3,16.2,12.3,86,76,63,30.47,30.12,11,1,11,0.00
2013-1-27,36.3,27.4,19.3,35.0,22.8,15.2,95,82,73,30.45,30.07,15,3,17,0.00
2013-1-28,52.2,47.7,36.3,52.0,46.6,35.0,98,96,93,30.09,29.94,15,4,17,0.08
2013-1-29,61.4,57.6,51.6,57.8,55.3,51.0,99,92,86,29.95,29.34,22,6,22,0.03
2013-1-30,63.6,45.4,26.3,59.0,43.4,22.7,97,93,83,29.57,29.21,27,5,27,0.78
2013-1-31,26.2,19.7,8.4,22.9,14.7,2.7,92,81,70,30.14,29.57,15,6,31,0.00
2013-2-1,16.6,10.0,3.3,10.7,3.3,-2.0,80,74,65,30.45,30.14,14,4,19,0.00
2013-2-2,26.3,21.8,16.6,24.0,18.3,10.5,92,86,76,30.30,30.01,15,2,15,0.00
2013-2-3,22.9,17.0,10.4,19.5,12.9,7.0,90,84,78,30.12,29.99,16,2,16,0.00
2013-2-4,35.9,27.5,21.1,28.2,22.0,15.6,89,80,69,30.11,29.83,14,2,16,0.02
2013-2-5,34.6,27.8,18.7,31.0,24.1,17.3,95,86,71,30.06,29.84,13,2,15,0.00
2013-2-6,38.0,32.2,28.0,27.6,24.3,20.9,88,73,58,30.28,30.05,11,2,11,0.00
2013-2-7,51.0,39.9,30.8,40.6,33.3,27.0,95,78,56,30.20,29.80,14,3,14,0.05
2013-2-8,38.7,33.8,29.5,37.0,29.7,22.8,95,85,68,30.37,29.82,18,5,21,0.00
2013-2-9,38.2,29.7,19.2,28.2,23.7,17.6,96,79,65,30.43,30.19,14,2,14,0.00
2013-2-10,50.4,42.7,33.1,48.1,37.5,24.0,95,82,70,30.18,29.65,22,5,23,0.13
2013-2-11,50.5,41.2,30.9,48.0,34.4,25.5,92,77,67,30.02,29.64,24,5,24,0.00
2013-2-12,38.9,33.1,28.5,30.0,26.7,23.7,84,77,68,30.14,30.02,14,3,16,0.00
2013-2-13,45.6,34.3,24.0,31.4,27.2,22.3,93,77,54,29.96,29.77,3,1,10,0.00
2013-2-14,46.7,38.0,32.7,37.8,32.9,29.3,93,82,68,29.99,29.77,19,4,20,0.00
2013-2-15,32.7,29.5,20.0,30.0,24.7,16.3,92,83,57,30.18,29.98,13,2,13,0.00
2013-2-16,25.3,21.2,16.6,19.0,13.1,6.9,90,71,53,30.17,30.11,17,3,18,0.00
2013-2-17,31.1,21.0,10.0,15.2,10.9,6.0,87,67,43,30.28,30.16,10,1,10,0.00
2013-2-18,55.6,41.1,25.9,43.9,30.8,14.9,91,67,52,30.17,29.54,25,7,29,0.14
2013-2-19,45.0,23.9,18.5,43.1,19.2,11.6,93,82,72,30.15,29.52,27,6,27,0.05
2013-2-20,22.1,17.0,9.5,15.5,10.6,4.5,84,76,68,30.37,30.15,15,3,17,0.00
2013-2-21,27.4,24.6,20.2,22.5,19.4,15.6,91,80,74,30.39,30.05,11,2,16,0.00
2013-2-22,35.7,31.2,24.8,34.1,29.4,22.4,96,93,85,30.07,29.87,17,2,17,0.09
2013-2-23,31.7,27.9,23.0,26.3,22.9,20.8,92,82,71,30.00,29.94,9,2,12,0.00
2013-2-24,37.1,27.9,19.6,25.8,22.2,17.9,94,80,61,30.18,30.00,10,1,10,0.03
2013-2-25,43.9,32.9,22.7,30.9,26.4,20.6,94,78,58,30.20,29.94,15,2,16,0.02
2013-2-26,34.9,33.5,31.9,34.1,30.9,26.9,97,90,77,29.94,29.42,17,3,17,0.60
2013-2-27,34.9,33.1,31.1,34.4,31.7,29.0,98,95,91,29.67,29.47,14,3,14,0.04
2013-2-28,37.9,33.7,31.6,35.0,31.9,29.4,97,93,86,29.99,29.66,10,3,12,0.09
2013-3-1,33.6,31.4,28.4,30.5,28.1,22.6,97,88,77,30.11,29.98,11,2,11,0.01
2013-3-2,32.4,28.2,25.1,25.5,21.3,19.0,88,75,63,30.14,30.09,13,3,13,0.00
2013-3-3,33.5,27.3,20.4,23.8,21.0,17.4,89,78,58,30.14,30.07,11,2,11,0.00
2013-3-4,37.9,28.4,14.9,30.2,22.2,13.0,94,79,57,30.17,30.00,13,1,13,0.00
2013-3-5,34.7,32.0,27.3,31.8,30.1,26.0,96,92,88,30.03,29.68,14,2,15,0.02
2013-3-6,30.0,27.9,26.7,28.2,26.5,24.7,96,94,93,30.28,29.80,13,3,13,0.03
2013-3-7,36.8,31.8,25.7,30.8,27.6,23.1,94,85,71,30.42,30.28,8,1,8,0.17
2013-3-8,41.9,30.8,18.6,27.7,23.9,17.1,95,77,53,30.51,30.39,10,1,10,0.13
2013-3-9,48.3,39.8,30.5,39.5,32.6,25.0,85,75,63,30.39,29.94,17,4,18,0.00
2013-3-10,66.7,55.8,47.7,46.7,40.9,36.3,66,58,40,29.94,29.70,15,5,22,0.00
2013-3-11,56.5,47.7,33.3,49.5,44.6,31.5,96,89,59,29.82,29.57,19,3,19,0.13
2013-3-12,40.0,33.7,30.8,31.4,28.5,24.9,93,82,58,30.02,29.82,13,4,18,0.00
2013-3-13,32.9,28.8,25.9,28.8,20.7,16.3,88,72,57,30.34,30.01,19,5,19,0.00
2013-3-14,41.3,31.4,20.6,30.5,22.0,17.0,90,70,44,30.36,30.16,11,2,11,0.00
2013-3-15,50.2,39.5,30.1,41.7,34.6,28.3,93,83,63,30.17,29.75,11,1,11,0.01
2013-3-16,44.6,38.6,31.5,40.0,35.8,27.2,97,90,82,30.08,29.61,14,2,14,0.00
2013-3-17,39.0,32.6,29.3,27.8,25.6,23.0,85,75,62,30.19,30.02,15,3,15,0.00
2013-3-18,39.6,33.5,29.8,38.7,31.6,26.0,97,93,81,30.02,29.57,14,2,14,0.02
2013-3-19,38.3,32.2,24.3,20.0,17.9,14.0,71,56,46,30.11,29.92,10,5,19,0.00
2013-3-20,30.9,26.0,22.5,19.0,13.8,9.0,77,61,47,30.11,30.03,11,5,20,0.00
2013-3-21,35.3,27.3,15.6,17.4,14.5,9.7,84,59,42,30.07,30.01,13,3,13,0.00
2013-3-22,42.4,28.5,16.6,21.4,18.4,14.2,94,68,40,30.09,30.01,9,1,10,0.00
2013-3-23,45.9,35.5,25.3,26.7,22.4,17.8,75,59,41,30.11,29.94,11,2,11,0.00
2013-3-24,35.4,31.4,28.5,29.1,26.9,25.0,96,84,70,29.97,29.48,23,5,23,0.02
2013-3-25,36.3,31.2,27.5,32.6,28.7,26.5,97,91,76,30.01,29.55,16,4,19,0.18
2013-3-26,39.5,33.6,30.8,31.6,29.3,27.4,93,84,63,30.25,30.01,9,3,13,0.02
2013-3-27,41.9,34.5,26.5,29.2,26.1,23.0,89,72,51,30.33,30.25,12,2,12,0.00
2013-3-28,46.7,35.9,24.2,30.7,26.7,22.0,94,71,49,30.38,30.30,9,1,10,0.00
2013-3-29,52.9,38.5,28.1,36.2,30.4,25.8,93,74,47,30.33,30.23,8,1,9,0.00
2013-3-30,58.1,42.5,27.5,37.6,31.7,25.0,92,68,42,30.24,29.92,10,1,12,0.00
2013-3-31,60.7,50.1,44.3,44.6,40.8,35.0,95,72,44,29.92,29.71,11,3,16,0.01
2013-4-1,45.0,37.5,26.9,34.7,23.8,15.5,81,59,34,30.16,29.81,15,4,18,0.00
2013-4-2,44.4,34.7,24.6,21.6,18.0,14.2,79,53,31,30.30,30.16,13,2,13,0.00
2013-4-3,47.9,34.1,22.1,22.7,18.2,14.0,81,55,29,30.47,30.30,12,1,14,0.00
2013-4-4,57.9,44.3,30.8,26.6,22.5,19.0,68,44,24,30.35,29.99,10,1,10,0.00
2013-4-5,55.7,43.3,35.4,36.0,27.2,20.7,77,56,27,30.17,29.98,12,1,14,0.00
2013-4-6,66.0,52.6,36.9,41.5,33.6,25.8,68,50,35,30.16,29.76,24,5,24,0.00
2013-4-7,69.3,61.4,52.2,46.0,42.3,39.0,78,51,37,29.92,29.72,16,3,19,0.00
2013-4-8,74.5,62.1,50.1,61.0,52.9,39.7,94,72,57,29.93,29.75,21,3,27,0.13
2013-4-9,80.6,66.8,53.8,62.0,57.3,51.0,95,74,46,29.96,29.82,26,3,26,0.00
2013-4-10,76.6,64.2,51.6,67.4,60.0,50.6,98,87,71,29.85,29.71,13,3,17,1.74
2013-4-11,64.7,56.5,49.5,62.1,55.4,48.4,99,96,91,29.78,29.51,18,2,18,0.79
2013-4-12,49.5,41.1,37.8,48.2,35.8,30.8,97,81,67,29.90,29.56,19,4,19,0.04
2013-4-13,46.5,40.9,36.9,36.8,34.3,31.0,92,78,60,30.00,29.89,14,3,16,0.00
2013-4-14,71.4,53.3,40.7,49.8,41.6,35.1,81,66,40,30.02,29.79,13,3,18,0.00
2013-4-15,66.2,60.4,54.0,58.0,52.3,46.0,87,75,60,29.91,29.79,19,4,20,0.02
2013-4-16,63.0,50.8,46.6,55.5,47.7,42.5,96,89,73,30.21,29.85,13,2,14,0.83
2013-4-17,68.5,53.1,45.5,64.0,49.3,41.8,93,87,81,30.22,29.86,16,2,16,0.21
2013-4-18,75.1,62.1,51.1,67.0,59.6,49.0,97,92,72,29.88,29.52,17,4,26,3.08
2013-4-19,55.0,39.0,35.8,54.0,33.7,29.7,96,81,68,29.93,29.50,19,5,20,1.13
2013-4-20,44.2,37.0,31.7,34.0,29.6,26.0,93,76,51,30.43,29.93,16,3,17,0.03
2013-4-21,53.2,44.5,30.2,33.6,29.7,22.0,76,57,41,30.56,30.39,10,1,13,0.00
2013-4-22,67.8,52.0,35.4,41.2,35.6,28.6,88,58,31,30.39,30.09,13,1,13,0.00
2013-4-23,67.6,57.0,45.2,56.5,48.5,39.8,97,75,54,30.10,29.77,19,2,20,1.01
2013-4-24,47.7,41.1,36.4,44.1,36.9,31.6,96,86,58,30.20,29.78,11,3,14,0.48
2013-4-25,51.4,43.2,35.0,38.2,32.9,25.5,88,69,42,30.37,30.18,22,3,22,0.00
2013-4-26,63.5,49.5,33.6,40.6,36.1,30.7,92,63,40,30.44,30.32,14,2,14,0.00
2013-4-27,68.3,55.7,41.6,51.7,41.7,35.0,90,62,35,30.33,29.99,15,2,16,0.02
2013-4-28,60.3,55.9,52.4,58.0,54.5,51.0,98,95,89,30.00,29.80,6,1,7,0.47
2013-4-29,70.8,61.3,55.3,57.8,54.8,52.9,96,81,59,29.95,29.85,14,2,15,0.00
2013-4-30,81.5,67.7,54.2,62.3,56.6,50.5,88,69,51,29.98,29.88,13,4,16,0.00
2013-5-1,84.8,72.1,55.0,58.9,55.7,51.3,89,59,36,30.11,29.98,11,2,14,0.00
2013-5-2,81.0,70.4,61.6,58.3,56.2,52.7,82,62,42,30.13,30.01,14,2,14,0.00
2013-5-3,77.0,68.6,62.8,63.5,57.3,44.0,82,68,42,30.02,29.87,17,3,19,0.00
2013-5-4,72.8,64.9,55.4,53.9,47.1,43.0,88,54,36,29.97,29.90,16,2,16,0.00
2013-5-5,67.5,59.6,53.1,53.0,50.9,48.4,96,74,52,29.97,29.92,17,1,17,0.00
2013-5-6,72.0,62.8,54.3,56.2,51.9,45.7,88,68,54,29.95,29.89,14,2,14,0.00
2013-5-7,77.2,66.2,57.7,57.0,55.3,52.5,90,70,44,29.98,29.90,11,1,11,0.00
2013-5-8,83.0,67.8,53.8,60.4,55.0,48.9,96,67,32,29.99,29.90,6,0,6,0.00
2013-5-9,82.3,66.0,57.7,60.4,56.8,51.2,96,75,35,29.95,29.83,12,1,13,0.51
2013-5-10,67.7,59.8,45.8,63.1,56.8,43.4,97,90,79,29.90,29.77,11,2,13,0.01
2013-5-11,63.2,49.2,40.4,53.7,44.3,35.8,96,84,56,30.01,29.82,19,1,19,0.00
2013-5-12,56.7,45.7,35.8,36.5,32.6,26.6,94,63,35,30.12,30.01,14,2,14,0.00
2013-5-13,64.5,50.4,35.3,37.1,32.0,25.0,89,54,24,30.19,30.08,13,1,13,0.00
2013-5-14,86.0,69.1,50.6,63.1,50.0,35.5,64,51,42,30.08,29.73,17,4,20,0.00
2013-5-15,86.0,77.1,71.1,62.5,59.1,54.0,67,54,40,29.79,29.71,15,2,16,0.00
2013-5-16,84.5,71.6,61.1,65.4,56.4,42.3,98,64,24,29.92,29.76,8,0,8,0.20
2013-5-17,83.7,67.6,58.8,67.5,60.8,52.6,97,81,51,30.01,29.92,7,1,10,0.81
2013-5-18,81.5,69.4,59.6,68.0,62.9,56.6,97,81,57,30.04,29.93,10,1,10,0.00
2013-5-19,86.5,74.5,61.4,69.0,65.0,60.4,97,74,48,29.94,29.79,12,2,15,0.00
2013-5-20,87.2,78.4,70.9,70.8,68.6,65.8,94,73,54,29.86,29.75,11,3,16,0.00
2013-5-21,86.8,75.5,64.1,69.0,64.5,61.2,92,71,44,29.79,29.68,17,3,20,0.03
2013-5-22,76.3,69.0,61.7,66.0,62.4,56.4,95,80,60,29.73,29.65,18,2,19,0.25
2013-5-23,64.5,57.0,44.3,60.3,54.0,41.7,96,90,76,30.16,29.73,13,2,14,0.00
2013-5-24,65.8,51.9,40.0,44.9,41.2,36.8,96,71,35,30.36,30.16,10,1,10,0.00
2013-5-25,62.2,52.6,39.7,47.5,42.2,36.4,91,69,47,30.37,30.22,6,0,6,0.00
2013-5-26,71.0,58.2,43.8,56.4,47.6,40.0,94,70,41,30.29,30.15,10,1,10,0.06
2013-5-27,67.7,59.1,54.2,66.0,55.7,51.8,98,89,75,30.16,29.85,17,3,20,1.78
2013-5-28,81.3,74.1,62.2,70.8,66.8,61.0,98,79,65,29.90,29.81,18,3,20,0.02
2013-5-29,87.0,77.8,70.5,68.8,64.4,61.0,78,64,47,29.96,29.86,18,3,18,0.00
2013-5-30,87.7,77.9,68.9,71.0,66.6,63.2,85,69,52,29.99,29.85,12,4,22,0.01
2013-5-31,77.7,72.5,64.5,70.1,67.5,62.6,97,85,73,29.93,29.78,18,4,18,0.36
2013-6-1,74.3,69.4,64.0,70.1,64.8,62.8,97,86,73,29.86,29.70,17,2,19,0.80
2013-6-2,71.0,61.9,53.2,63.9,58.2,46.9,96,88,75,29.99,29.72,15,1,15,0.17
2013-6-3,69.2,56.6,44.1,51.0,45.6,39.9,95,69,38,30.08,29.98,10,1,10,0.00
2013-6-4,77.5,62.8,47.7,51.9,48.3,44.9,94,63,35,30.14,30.04,13,1,14,0.00
2013-6-5,81.0,68.9,54.8,56.2,51.8,47.0,79,56,37,30.07,29.84,10,1,10,0.00
2013-6-6,78.2,66.7,59.0,60.6,54.3,47.0,77,65,51,29.88,29.76,12,1,12,0.00
2013-6-7,72.9,66.1,58.6,59.2,56.8,54.6,91,73,57,29.86,29.79,9,1,9,0.00
2013-6-8,80.0,68.6,57.4,61.6,55.5,51.9,87,65,45,29.97,29.86,11,1,11,0.00
2013-6-9,83.9,73.5,65.2,66.9,61.0,54.6,96,68,37,29.98,29.80,9,2,13,0.20
2013-6-10,81.2,69.6,63.1,66.9,64.3,62.0,98,85,59,29.82,29.71,11,1,11,1.00
2013-6-11,87.0,72.2,61.0,70.5,65.5,60.4,99,82,49,29.92,29.81,9,1,9,0.15
2013-6-12,90.3,79.9,67.3,76.3,72.2,64.6,97,78,61,29.86,29.58,17,2,17,1.36
2013-6-13,78.0,69.2,60.8,68.6,61.9,54.6,99,80,49,29.95,29.56,15,2,15,1.34
2013-6-14,81.5,67.2,54.5,63.5,57.8,53.0,96,74,47,30.06,29.93,9,1,9,0.00
2013-6-15,79.9,73.1,59.6,68.2,63.4,58.0,96,72,57,30.06,29.88,9,1,10,0.00
2013-6-16,82.7,74.1,66.7,70.5,66.8,63.0,94,79,63,29.93,29.85,11,1,12,0.07
2013-6-17,89.2,77.1,67.5,71.8,66.6,58.3,98,73,36,29.91,29.83,4,0,8,0.00
2013-6-18,82.5,74.0,64.9,66.6,64.1,60.0,97,73,54,29.97,29.82,11,2,11,0.00
2013-6-19,81.5,70.0,58.7,60.4,57.6,54.0,92,67,45,30.09,29.97,10,1,10,0.00
2013-6-20,88.7,75.1,62.4,66.8,60.5,55.6,82,62,40,30.14,30.07,10,1,10,0.00
2013-6-21,90.7,78.5,67.7,67.5,62.7,59.4,81,60,36,30.14,29.92,15,2,15,0.00
2013-6-22,90.3,77.3,71.0,75.0,68.4,65.6,85,74,59,30.08,29.95,15,1,15,0.00
2013-6-23,90.3,76.4,67.0,72.7,68.4,65.4,97,78,51,30.06,29.96,14,2,15,0.49
2013-6-24,87.8,77.9,68.1,73.6,69.5,65.0,95,77,60,30.07,29.90,14,2,26,0.02
2013-6-25,91.2,79.8,66.9,76.2,70.9,63.3,94,76,56,29.97,29.79,8,2,10,0.11
2013-6-26,87.0,74.9,0.0,74.6,68.7,0.0,96,81,64,29.86,29.68,14,2,20,0.06
2013-6-27,89.0,77.8,69.6,74.7,71.1,68.0,98,81,61,29.74,29.63,7,1,8,0.08
2013-6-28,84.4,76.3,67.6,69.5,66.5,60.8,88,73,53,29.65,29.54,9,1,13,0.00
2013-6-29,68.6,65.0,62.4,67.0,63.7,61.8,97,95,93,29.57,29.53,2,0,3,0.11
2013-6-30,72.9,66.8,61.9,65.0,63.1,61.0,97,88,68,29.86,29.65,7,2,12,0.18
2013-7-1,75.6,69.8,64.6,64.0,62.3,61.0,88,78,68,29.93,29.85,7,3,15,0.00
2013-7-2,67.1,63.7,60.2,64.0,60.7,58.0,95,89,83,29.97,29.94,2,1,7,0.09
2013-7-3,81.0,74.8,64.8,67.9,65.2,63.5,98,73,56,30.05,30.00,14,3,15,0.00
2013-7-4,79.0,70.4,61.3,67.4,63.6,57.0,99,81,48,30.11,30.02,4,0,7,0.00
2013-7-5,84.3,74.5,65.2,69.1,67.2,64.3,98,79,55,30.08,30.00,6,1,8,0.00
2013-7-6,77.5,72.7,69.4,70.5,68.6,67.0,95,87,75,30.06,29.97,9,1,9,0.00
2013-7-7,86.2,74.2,65.8,72.0,68.0,64.4,96,82,57,30.04,29.96,7,1,10,0.00
2013-7-8,87.3,79.4,71.1,75.0,72.1,68.0,90,79,66,30.04,29.94,12,1,15,0.00
2013-7-9,88.7,78.6,75.6,76.4,72.8,71.5,87,83,65,29.98,29.92,6,1,8,0.00
2013-7-10,84.5,73.1,67.5,78.0,66.6,60.4,95,80,73,29.95,29.78,7,1,23,0.51
2013-7-11,79.3,68.7,57.0,62.1,58.6,55.4,96,72,47,30.03,29.93,13,1,13,0.00
2013-7-12,82.0,69.3,54.9,63.0,58.5,53.6,97,71,47,30.10,30.02,14,1,14,0.00
2013-7-13,85.7,73.7,60.5,69.1,64.3,58.0,93,74,55,30.11,30.05,11,1,11,0.00
2013-7-14,91.2,79.2,66.0,74.4,69.9,64.0,95,75,54,30.15,30.10,10,1,10,0.00
2013-7-15,92.2,82.8,74.7,74.7,72.7,70.8,90,73,52,30.24,30.15,10,2,11,0.00
2013-7-16,91.4,79.8,70.5,75.4,72.0,68.7,95,78,57,30.29,30.23,7,0,7,0.00
2013-7-17,93.5,87.2,78.4,75.7,74.0,70.7,85,66,52,30.29,30.14,7,1,7,0.00
2013-7-18,95.6,82.4,72.5,78.0,73.7,71.0,96,77,49,30.16,29.96,8,0,8,0.00
2013-7-19,94.0,85.7,75.8,77.4,74.6,72.3,90,71,55,29.93,29.78,11,2,13,0.00
2013-7-20,83.0,77.0,70.5,74.2,72.2,69.0,97,85,72,29.87,29.75,12,1,12,0.21
2013-7-21,86.8,77.4,68.1,72.9,70.1,67.5,98,80,57,29.93,29.82,10,1,10,0.00
2013-7-22,84.8,75.7,67.4,71.8,69.5,66.5,98,82,62,29.85,29.73,7,1,7,0.32
2013-7-23,85.0,74.9,60.8,72.6,67.3,55.9,93,78,59,29.87,29.67,9,2,17,0.00
2013-7-24,75.8,62.5,53.0,58.1,54.5,51.0,94,77,50,30.00,29.86,13,1,13,0.00
2013-7-25,79.3,66.5,53.9,58.9,55.5,52.7,98,71,46,30.08,30.00,8,1,8,0.00
2013-7-26,82.2,68.8,57.0,63.3,59.0,54.0,93,73,48,30.07,29.89,10,1,15,0.00
2013-7-27,77.3,69.5,58.7,65.4,60.1,51.8,92,73,52,29.89,29.80,14,1,14,0.00
2013-7-28,72.3,61.4,50.5,56.0,51.1,47.0,89,71,49,30.01,29.88,12,1,15,0.00
2013-7-29,77.0,64.7,51.3,59.3,55.2,49.9,96,73,52,30.15,30.01,7,1,12,0.00
2013-7-30,78.5,66.5,55.5,64.8,59.3,54.0,97,79,54,30.18,30.06,9,1,9,0.04
2013-7-31,76.8,68.7,64.6,71.2,66.6,63.2,98,93,82,30.07,29.90,5,1,9,0.33
2013-8-1,81.5,70.4,62.8,69.0,62.6,57.0,98,79,46,29.97,29.90,10,1,10,0.05
2013-8-2,84.6,70.6,57.2,69.0,62.4,55.8,96,77,55,29.96,29.85,13,2,18,0.00
2013-8-3,81.7,71.2,59.8,68.9,64.0,54.0,98,80,55,30.05,29.90,11,1,11,0.65
2013-8-4,78.2,66.1,52.8,60.4,56.3,51.4,97,73,49,30.15,30.04,8,1,8,0.00
2013-8-5,80.9,67.5,59.0,63.5,59.4,55.8,92,77,48,30.09,29.91,6,1,9,0.06
2013-8-6,80.5,71.4,0.0,71.5,66.2,60.6,91,83,73,29.93,29.85,10,2,11,0.00
2013-8-7,85.8,76.5,70.9,74.7,71.7,69.4,96,86,67,29.87,29.80,11,1,11,0.00
2013-8-8,74.5,71.2,67.7,74.0,69.6,66.2,98,95,87,29.92,29.85,8,1,8,0.69
2013-8-9,82.4,72.2,64.9,69.9,66.7,63.0,98,85,53,29.99,29.89,7,0,8,0.00
2013-8-10,84.5,75.8,65.6,70.7,66.9,63.5,94,75,58,30.06,30.00,8,-4,8,0.00
2013-8-11,74.3,66.6,63.8,69.2,64.4,62.9,97,93,82,30.08,30.04,3,0,5,0.00
2013-8-12,83.7,74.5,63.9,71.0,68.1,63.0,96,81,62,30.04,29.83,0,0,6,0.00
2013-8-13,71.8,65.4,56.9,67.0,58.0,51.0,98,78,54,30.06,29.85,5,1,14,0.03
2013-8-14,68.5,55.8,47.1,51.0,49.1,46.0,97,80,52,30.18,30.08,5,1,9,0.00
2013-8-15,72.1,63.3,48.0,55.0,51.9,47.0,98,69,47,30.17,30.09,4,1,7,0.00
2013-8-16,77.0,70.2,58.2,59.0,56.8,53.9,90,64,48,30.15,30.11,10,1,10,0.03
2013-8-17,80.8,67.6,57.0,61.6,57.6,53.0,92,72,47,30.20,30.11,12,1,12,0.00
2013-8-18,84.3,70.5,58.2,65.5,60.5,56.1,95,73,47,30.16,30.06,7,0,7,0.00
2013-8-19,87.0,72.2,58.8,67.3,63.2,58.0,98,76,50,30.10,30.02,6,0,6,0.00
2013-8-20,88.6,76.1,62.8,67.6,64.7,61.9,98,71,44,30.12,30.03,9,1,9,0.00
2013-8-21,90.7,78.0,67.4,73.0,67.8,65.0,93,73,48,30.09,29.97,8,1,11,0.00
2013-8-22,81.2,73.0,66.9,72.1,68.3,65.7,96,85,71,30.07,29.97,4,0,6,0.04
2013-8-23,84.1,71.5,61.8,68.8,64.6,59.8,98,81,52,30.12,30.03,8,1,9,0.00
2013-8-24,85.5,71.2,56.1,60.1,55.9,47.0,97,64,27,30.25,30.12,10,1,10,0.00
2013-8-25,89.5,74.8,61.4,66.0,62.2,57.8,91,68,41,30.26,30.16,10,1,10,0.00
2013-8-26,90.2,77.2,63.9,74.4,67.3,58.8,91,73,51,30.19,30.01,10,1,11,0.00
2013-8-27,92.4,81.4,72.1,78.7,73.5,69.0,92,78,57,30.03,29.88,9,1,9,0.05
2013-8-28,89.3,79.8,72.2,76.9,72.4,69.0,95,79,62,29.95,29.85,6,1,10,0.00
2013-8-29,89.5,79.4,70.3,73.4,69.8,66.9,97,75,49,30.02,29.94,6,1,8,0.00
2013-8-30,94.2,80.1,66.5,75.1,70.7,65.0,97,75,49,29.95,29.73,9,1,9,0.00
2013-8-31,86.6,75.2,68.3,74.8,69.4,66.0,97,83,60,29.81,29.73,6,0,8,0.45
2013-9-1,79.1,73.4,67.7,72.5,70.0,67.0,98,90,78,29.76,29.72,9,0,11,0.01
2013-9-2,82.3,73.2,64.7,69.8,66.8,59.0,98,83,49,29.91,29.70,9,1,9,0.00
2013-9-3,72.4,62.0,52.0,58.0,55.2,50.0,94,80,59,30.04,29.94,3,1,5,0.00
2013-9-4,83.3,71.9,53.1,63.0,60.1,53.0,98,69,47,30.12,30.04,4,1,6,0.00
2013-9-5,82.3,71.2,58.8,66.0,58.6,49.4,98,66,52,30.17,30.09,7,1,8,0.00
2013-9-6,85.2,69.2,54.1,63.2,54.2,47.0,84,61,41,30.21,30.03,9,1,9,0.00
2013-9-7,88.6,75.0,62.5,68.2,62.7,56.0,84,67,46,30.04,29.88,10,1,11,0.00
2013-9-8,87.1,75.2,65.9,71.2,67.2,64.2,95,77,56,29.95,29.89,8,1,12,0.00
2013-9-9,94.2,79.4,66.2,74.2,69.7,63.9,94,75,51,29.95,29.84,18,2,18,0.00
2013-9-10,97.6,84.5,74.3,74.3,70.5,63.2,92,67,33,30.03,29.91,11,1,11,0.00
2013-9-11,96.0,83.5,73.8,72.7,68.5,63.5,91,63,38,30.05,29.92,10,1,10,0.00
2013-9-12,83.7,72.3,60.3,71.9,64.9,51.8,98,80,40,29.96,29.81,13,1,13,1.06
2013-9-13,68.0,58.2,49.0,55.1,48.1,43.4,93,71,43,30.10,29.96,12,1,12,0.00
2013-9-14,72.6,55.8,41.5,46.5,41.4,34.2,98,65,26,30.19,30.07,6,1,8,0.00
2013-9-15,76.1,60.1,48.8,59.0,49.9,43.0,97,72,40,30.10,29.97,8,1,13,0.22
2013-9-16,66.5,59.0,50.5,57.6,54.9,49.0,98,87,67,30.28,30.07,10,1,10,0.00
2013-9-17,75.5,61.5,47.3,55.1,51.3,46.2,97,72,46,30.33,30.13,8,1,10,0.01
2013-9-18,84.2,71.2,59.3,67.0,60.3,52.6,90,70,51,30.14,29.97,6,1,12,0.02
2013-9-19,84.3,72.6,64.6,72.7,68.1,63.7,98,87,65,30.01,29.83,13,2,14,1.72
2013-9-20,78.2,72.6,63.5,71.0,68.4,60.5,97,87,72,29.88,29.75,9,1,10,0.09
2013-9-21,70.3,60.5,49.5,60.3,53.2,47.0,97,79,48,29.89,29.73,11,1,11,0.00
2013-9-22,68.0,54.9,45.0,51.8,47.1,44.0,98,78,46,30.02,29.89,8,1,10,0.00
2013-9-23,72.2,56.3,0.0,50.5,45.2,-99.9,96,70,43,30.11,30.01,9,-8,13,0.00
2013-9-24,74.7,63.1,47.7,52.4,49.2,45.0,91,63,44,30.05,29.90,8,1,10,0.00
2013-9-25,77.1,61.3,0.0,56.5,50.6,0.0,93,69,44,29.93,29.86,8,-4,8,0.00
2013-9-26,79.8,62.3,49.1,60.1,52.7,48.0,98,75,40,30.06,29.92,9,1,10,0.00
2013-9-27,82.4,66.9,50.4,55.7,49.8,44.7,92,58,28,30.16,30.06,6,0,9,0.00
2013-9-28,82.5,66.2,52.3,59.0,54.8,49.7,92,69,43,30.13,29.97,7,-8,13,0.00
2013-9-29,69.5,61.1,0.0,62.0,57.5,0.0,98,86,70,29.98,29.93,6,-9,8,0.27
2013-9-30,76.6,61.6,51.9,63.8,57.0,51.4,99,87,54,30.00,29.89,7,0,9,0.02
2013-10-1,76.2,66.5,60.0,65.1,62.1,59.0,98,87,66,30.02,29.94,11,-3,11,0.00
2013-10-2,79.0,66.6,0.0,70.1,62.4,-99.9,98,87,68,30.06,29.98,7,-24,8,0.00
2013-10-3,82.1,73.1,65.9,70.0,66.3,65.0,97,81,59,30.00,29.88,8,2,15,0.16
2013-10-4,84.9,73.6,67.6,71.0,67.2,64.8,91,81,59,29.98,29.92,9,2,13,0.00
2013-10-5,80.2,70.9,66.2,72.0,68.2,64.4,97,91,70,29.97,29.80,10,2,13,0.57
2013-10-6,66.4,61.5,46.6,65.1,57.6,40.0,97,88,63,29.83,29.67,10,2,20,0.83
2013-10-7,64.1,49.8,44.6,50.0,45.1,40.0,96,85,51,30.12,29.78,11,1,11,0.04
2013-10-8,73.8,57.4,46.0,53.3,48.1,43.6,94,75,42,30.24,30.12,9,1,10,0.00
2013-10-9,75.3,57.5,42.8,51.6,47.0,41.0,96,72,39,30.24,30.12,10,1,11,0.00
2013-10-10,75.7,57.5,45.3,54.3,48.4,44.2,98,75,38,30.18,30.05,8,0,8,0.00
2013-10-11,79.0,59.7,43.0,54.1,48.6,41.9,97,72,35,30.09,29.98,7,0,8,0.00
2013-10-12,80.5,63.6,47.6,61.2,54.5,46.5,98,75,44,30.09,29.98,7,1,10,0.00
2013-10-13,69.5,59.5,46.9,61.3,46.4,38.9,96,65,35,30.34,30.09,8,1,8,0.00
2013-10-14,68.8,52.4,37.6,51.2,43.5,36.6,97,75,43,30.36,30.18,9,1,9,0.00
2013-10-15,66.6,58.2,48.9,62.1,55.0,45.7,96,89,79,30.18,29.85,10,2,15,0.04
2013-10-16,63.4,53.6,44.4,62.0,47.5,41.4,95,80,65,29.96,29.85,10,1,10,0.00
2013-10-17,51.8,45.8,40.6,48.4,43.9,39.5,97,93,82,29.95,29.85,6,0,13,0.14
2013-10-18,64.1,50.1,41.2,49.3,43.4,38.6,93,79,50,29.98,29.89,10,1,11,0.00
2013-10-19,53.7,45.0,39.9,43.8,39.2,35.4,96,81,53,29.95,29.85,7,1,11,0.28
2013-10-20,64.8,52.0,41.0,45.5,40.8,36.0,85,67,47,29.95,29.86,18,3,18,0.00
2013-10-21,54.6,48.9,37.2,47.1,41.8,28.7,87,77,66,29.99,29.88,8,1,16,0.00
2013-10-22,50.4,37.0,28.5,36.5,28.9,25.5,90,74,47,30.03,29.93,8,0,8,0.02
2013-10-23,46.5,39.4,33.5,37.8,33.3,29.7,97,80,55,30.04,29.85,11,1,11,0.18
2013-10-24,43.5,38.2,32.6,34.5,31.0,26.0,87,75,58,30.29,30.03,6,1,11,0.00
2013-10-25,48.4,36.9,26.6,32.5,27.8,24.3,92,71,48,30.45,30.23,10,1,12,0.00
2013-10-26,55.3,43.4,34.4,40.3,32.4,27.0,91,66,48,30.23,29.88,18,2,18,0.00
2013-10-27,55.9,40.4,28.6,35.7,31.8,27.6,97,75,40,30.11,30.03,8,0,8,0.00
2013-10-28,60.8,40.8,29.3,38.7,32.5,27.8,97,77,37,30.32,30.08,5,0,5,0.00
2013-10-29,56.8,46.0,36.1,44.9,40.1,35.0,96,81,61,30.37,30.18,7,0,7,0.00
2013-10-30,63.9,55.0,49.6,63.0,52.9,44.6,98,93,80,30.18,29.91,9,2,12,0.08
2013-10-31,64.0,60.9,53.2,63.0,59.5,52.0,97,95,93,29.89,29.24,16,4,20,1.56
2013-11-1,52.9,48.8,44.1,51.0,44.5,41.8,95,85,73,29.74,29.36,10,2,14,0.01
2013-11-2,51.9,45.5,41.9,44.1,41.8,40.0,95,87,69,30.11,29.73,9,1,9,0.01
2013-11-3,51.9,41.9,31.9,42.1,37.7,31.0,98,86,59,30.33,30.11,8,0,8,0.00
2013-11-4,55.5,45.8,38.4,43.4,39.4,35.7,91,79,58,30.35,30.24,8,2,17,0.00
2013-11-5,57.7,53.0,47.6,48.6,45.4,41.8,90,76,65,30.34,30.10,17,3,18,0.01
2013-11-6,58.0,52.3,41.3,53.2,47.5,38.6,95,85,65,30.10,29.84,21,4,21,0.14
2013-11-7,48.0,39.9,30.3,38.6,32.1,27.6,91,75,47,30.27,30.08,11,2,11,0.00
2013-11-8,50.2,38.9,29.2,33.8,30.8,27.4,94,75,51,30.37,30.15,10,1,10,0.00
2013-11-9,61.0,51.9,43.7,42.9,37.3,29.5,75,58,49,30.15,29.95,12,4,21,0.00
2013-11-10,47.3,40.6,33.1,38.7,32.3,29.0,88,73,56,30.33,30.07,16,2,18,0.00
2013-11-11,51.3,41.1,29.1,40.4,34.2,27.5,95,77,59,30.37,30.08,14,2,15,0.02
2013-11-12,33.2,28.6,23.2,28.0,23.8,19.9,94,82,68,30.66,30.37,13,1,13,0.02
2013-11-13,38.3,28.1,19.0,22.5,19.8,16.3,92,73,48,30.65,30.33,9,2,16,0.01
2013-11-14,53.4,40.5,30.4,25.8,23.6,21.0,72,53,30,30.33,30.07,20,4,20,0.00
2013-11-15,53.2,45.9,41.3,36.0,29.6,25.0,77,53,41,30.09,30.02,15,3,15,0.00
2013-11-16,59.6,51.0,41.9,57.3,48.0,35.6,94,89,77,30.03,29.73,24,6,24,0.00
2013-11-17,64.0,58.3,47.1,61.7,54.5,41.6,96,87,65,29.76,29.30,28,7,28,0.76
2013-11-18,47.2,41.8,32.7,41.4,34.5,28.0,86,75,58,30.21,29.73,23,4,23,0.00
2013-11-19,40.7,33.5,26.3,31.0,28.1,24.0,92,81,66,30.37,30.21,6,0,9,0.00
2013-11-20,46.7,37.0,28.2,36.7,30.1,25.0,90,77,61,30.36,30.16,12,2,14,0.00
2013-11-21,49.2,46.1,42.9,48.4,42.5,36.0,97,88,69,30.25,30.16,15,2,15,0.55
2013-11-22,49.1,41.4,30.6,48.3,39.5,28.0,98,93,82,30.43,30.16,10,2,15,0.07
2013-11-23,30.7,26.3,20.0,29.0,21.3,13.0,93,82,65,30.64,30.40,15,3,22,0.00
2013-11-24,25.9,19.4,14.5,15.0,10.2,4.0,84,68,39,30.73,30.53,10,1,12,0.00
2013-11-25,32.8,27.8,18.9,22.9,17.3,10.9,72,65,52,30.53,30.17,8,2,17,0.00
2013-11-26,37.7,32.3,28.5,29.3,26.3,22.9,91,79,67,30.19,29.98,12,2,12,0.00
2013-11-27,28.5,23.8,19.3,26.0,18.1,13.0,90,79,61,30.30,30.02,15,3,15,0.00
2013-11-28,35.9,27.6,20.2,20.3,17.1,13.0,84,65,47,30.47,30.24,18,2,19,0.00
2013-11-29,37.2,27.6,14.4,23.8,20.4,12.5,94,76,57,30.67,30.48,8,1,10,0.00
2013-11-30,50.9,39.8,28.8,31.9,27.5,23.0,80,63,46,30.51,30.13,15,3,16,0.00
2013-12-1,47.1,39.1,31.7,37.0,32.4,27.0,89,77,57,30.12,29.97,6,1,8,0.00
2013-12-2,42.2,35.9,31.3,36.0,31.7,27.6,94,85,74,29.98,29.80,5,1,7,0.04
2013-12-3,49.0,44.2,37.1,47.1,42.4,36.0,95,93,92,29.82,29.75,9,3,12,0.00
2013-12-4,58.9,52.2,44.3,56.9,50.9,43.0,98,95,91,29.80,29.61,15,3,15,0.01
2013-12-5,57.7,35.6,25.6,55.4,31.0,18.8,92,83,75,30.21,29.66,11,4,13,0.00
2013-12-6,27.8,25.3,19.6,22.4,19.8,15.8,85,79,75,30.48,30.19,10,2,10,0.00
2013-12-7,25.4,19.0,12.8,16.0,12.7,9.0,86,77,59,30.67,30.47,8,1,8,0.00
2013-12-8,29.2,23.4,18.0,28.0,19.2,13.0,95,84,74,30.58,30.00,13,2,13,0.00
2013-12-9,29.2,24.0,17.4,28.0,19.4,9.0,95,83,70,30.26,29.98,17,3,21,0.00
2013-12-10,27.6,18.1,7.2,13.9,9.6,2.9,83,70,51,30.36,30.14,14,3,18,0.00
2013-12-11,26.7,18.3,7.9,19.9,12.6,2.8,87,78,68,30.58,30.34,11,2,12,0.00
2013-12-12,26.0,13.4,1.8,6.7,1.9,-3.0,83,62,34,30.60,30.33,15,2,15,0.00
2013-12-13,38.0,26.9,17.7,30.0,17.8,6.6,95,69,52,30.33,30.14,11,2,11,0.00
2013-12-14,32.6,29.6,24.1,31.6,28.2,21.9,96,94,91,30.15,29.78,5,0,7,0.00
2013-12-15,27.1,19.0,14.0,25.0,15.7,10.0,93,87,79,30.15,29.94,0,0,0,0.00
2013-12-16,24.6,18.8,13.9,23.4,16.1,11.0,95,89,81,30.18,30.03,0,0,0,0.00
2013-12-17,27.6,22.8,18.1,25.3,20.9,16.0,95,92,87,30.15,30.01,0,0,0,0.00
2013-12-18,34.9,24.9,12.5,23.9,17.8,9.9,89,75,59,30.27,29.97,15,2,16,0.00
2013-12-19,45.5,42.3,34.8,41.7,35.9,23.5,89,78,63,30.00,29.85,15,3,16,0.27
2013-12-20,57.4,51.3,44.6,56.0,49.6,41.3,96,94,86,29.85,29.71,12,3,17,0.19
2013-12-21,45.4,37.0,34.3,43.3,36.1,33.5,98,97,92,29.82,29.47,14,2,14,1.91
2013-12-22,38.1,35.5,30.4,37.0,34.4,28.0,98,96,89,30.07,29.42,15,3,18,0.11
2013-12-23,30.3,23.1,10.4,28.0,19.0,5.0,92,84,73,30.46,30.09,14,3,16,0.00
2013-12-24,18.1,11.9,3.4,12.9,7.1,-1.0,87,81,74,30.62,30.46,13,2,15,0.00
2013-12-25,28.7,24.4,17.7,25.8,18.9,12.8,89,79,73,30.50,30.16,15,3,15,0.00
2013-12-26,35.0,29.1,18.8,28.2,22.9,14.0,95,78,62,30.37,30.15,12,3,17,0.00
2013-12-27,45.3,35.6,28.8,34.3,29.5,25.0,88,79,66,30.37,30.20,10,2,12,0.00
2013-12-28,52.5,42.0,35.9,38.2,33.8,30.0,84,73,57,30.21,29.94,13,3,16,0.00
2013-12-29,41.7,36.7,25.4,34.4,30.6,23.0,94,79,65,30.09,29.80,14,3,14,0.00
2013-12-30,25.2,18.8,15.3,23.0,14.1,11.0,92,82,71,30.32,30.09,9,2,15,0.00
2013-12-31,25.0,18.7,12.9,18.4,13.6,9.0,87,80,71,30.42,30.20,10,2,13,0.00
2014-1-1,27.6,23.5,19.4,24.0,19.7,15.4,89,85,83,30.30,30.15,8,1,10,0.00
2014-1-2,17.2,13.5,0.0,15.3,9.1,-99.9,92,83,74,30.39,30.00,11,-10,13,0.00